This is the latest recevied weather packets stored in our database for station/object LU3HGB-WX. If no packets are shown the sender has not sent any weather packets the latest 10 day(s).
| Time | Temp. | Humidity | Pressure | Rain* | Wind** | Luminosity | Snow |
|---|---|---|---|---|---|---|---|
| 1778148460 | 12.78° C | 32% | 1007 hPa | 0 mm | - | 0 W/m² | - |
| 1778148160 | 12.22° C | 40% | 1008 hPa | 0 mm | - | 0 W/m² | - |
| 1778147860 | 12.22° C | 53% | 1008 hPa | 0 mm | - | 0 W/m² | - |
| 1778147559 | 11.67° C | 53% | 1009 hPa | 0 mm | - | 0 W/m² | - |
| 1778147259 | 11.67° C | 63% | 1009 hPa | 0 mm | - | 0 W/m² | - |
| 1778146959 | 11.67° C | 64% | 1009 hPa | 0 mm | - | 0 W/m² | - |
| 1778146665 | 11.67° C | 63% | 1009 hPa | 0 mm | - | 0 W/m² | - |
| 1778146359 | 11.67° C | 64% | 1009 hPa | 0 mm | - | 0 W/m² | - |
| 1778146060 | 11.11° C | 64% | 1009 hPa | 0 mm | - | 0 W/m² | - |
| 1778145760 | 11.11° C | 71% | 1009 hPa | 0.25 mm | - | 0 W/m² | - |
| 1778145460 | 11.11° C | 75% | 1009 hPa | 0.25 mm | - | 0 W/m² | - |
| 1778145159 | 11.11° C | 73% | 1009 hPa | 0 mm | - | 0 W/m² | - |
| 1778144859 | 11.67° C | 72% | 1009 hPa | 0 mm | - | 0 W/m² | - |
| 1778144560 | 11.11° C | 69% | 1009 hPa | 0 mm | - | 0 W/m² | - |
| 1778144260 | 11.11° C | 71% | 1009 hPa | 0 mm | - | 0 W/m² | - |
| 1778143959 | 11.11° C | 71% | 1009 hPa | 0 mm | - | 0 W/m² | - |
| 1778143659 | 11.11° C | 70% | 1010 hPa | 0.25 mm | - | 0 W/m² | - |
| 1778143364 | 11.67° C | 70% | 1010 hPa | 0 mm | - | 0 W/m² | - |
| 1778143059 | 12.22° C | 62% | 1010 hPa | 4.06 mm | - | 0 W/m² | - |
| 1778142763 | 11.67° C | 63% | 1010 hPa | 0 mm | - | 0 W/m² | - |
| 1778142459 | 12.22° C | 70% | 1010 hPa | 0 mm | - | 0 W/m² | - |
| 1778142160 | 12.78° C | 69% | 1009 hPa | 0 mm | - | 0 W/m² | - |
| 1778141860 | 12.78° C | 62% | 1009 hPa | 0 mm | - | 0 W/m² | - |
| 1778141559 | 12.78° C | 57% | 1009 hPa | 0 mm | - | 0 W/m² | - |
| 1778141260 | 12.78° C | 56% | 1009 hPa | 0 mm | - | 0 W/m² | - |
* Rain latest hour (hover to see other rain measurements)
** Current wind speed in m/s (hover to see current wind gust speed)